User: anonymous   Login
Location: Rehoboth Beach
(38.7438°N, 75.1341°W)
Time: 12:45:49
(UTC-04:00)
Language:

Cosmos 1452 Rocket - Orbit

View from above orbital plane
View from above orbital plane
View from above satellite
View from above satellite

Ground track
Ground track

The orbit data is extracted from the following two-line orbital elements,

1 13992U 83031B   15181.18204023  .00000043  00000-0  23722-4 0  9992
2 13992 074.0528 243.9140 0004497 031.5814 028.7528 14.35952792685740
Epoch (UTC): 30 June 2015 04:22:08
Eccentricity: 0.0004497
inclination: 74.0528°
perigee height: 768 km
apogee height: 775 km
right ascension of ascending node: 243.9140°
argument of perigee: 31.5814°
revolutions per day: 14.35952792
mean anomaly at epoch: 28.7528°
orbit number at epoch: 68574

The dashed part of the orbit path shows where the satellite is in the earth's shadow,  

DLR